Weather History for Oklahoma City Wiley Post, OK

Change the Weather History Date:

Friday, November 2, 2012

  Actual Average Record
Temperature  
Mean Temperature 69 °F -  
Max Temperature 84 °F 63 °F 84 °F (2012)
Min Temperature 54 °F 43 °F 22 °F (1954)
Cooling Degree Days 4    
Growing Degree Days 19 (Base 50)    
Moisture  
Dew Point 48 °F    
Average Humidity 50    
Maximum Humidity 72    
Minimum Humidity 31    
Precipitation  
Precipitation 0.00 in - - ()
Sea Level Pressure  
Sea Level Pressure 29.86 in    
Wind  
Wind Speed 11 mph (SSW)    
Max Wind Speed 24 mph    
Max Gust Speed 31 mph    
Visibility 10 miles    
Events      
Averages and records for this station are not official NWS values.
T = Trace of Precipitation, MM = Missing Value Source: NWS Daily Summary

Daily Weather History Graph

Daily Weather History Graph

Search for Another Location

Airport:

Trip Planner

Search our weather history database for the weather conditions in past years. The results will help you decide how hot, cold, wet, or windy it might be!

Date:

Astronomy

Nov. 02, 2012 Rise Set
Actual Time 7:53 AM CDT 6:33 PM CDT
Civil Twilight 7:27 AM CDT 7:00 PM CDT
Nautical Twilight 6:57 AM CDT 7:30 PM CDT
Astronomical Twilight 6:27 AM CDT 8:00 PM CDT
Moon 9:26 PM CDT (11/2) 11:11 AM CDT (11/2)
Length of Visible Light 11h 32m
Length of Day
10h 40m
Waning Gibbous, 87% of the Moon is Illuminated
Nov 2
Waning Gibbous
Nov 6
Last Quarter
Nov 13
New
Nov 20
First Quarter
Nov 28
Full

Hourly Weather History & Observations

Time (CDT) Temp. Heat Index Dew Point Humidity Pressure Visibility Wind Dir Wind Speed Gust Speed Precip Events Conditions
12:53 AM 60.1 °F - 46.0 °F 60% 29.90 in 10.0 mi SSW 5.8 mph - N/A   Clear
1:53 AM 63.0 °F - 46.0 °F 54% 29.88 in 10.0 mi SSE 11.5 mph - N/A   Clear
2:53 AM 59.0 °F - 46.0 °F 62% 29.88 in 10.0 mi South 9.2 mph - N/A   Clear
3:53 AM 55.9 °F - 46.0 °F 69% 29.86 in 10.0 mi South 8.1 mph - N/A   Clear
4:53 AM 55.0 °F - 45.0 °F 69% 29.86 in 10.0 mi SSW 9.2 mph - N/A   Clear
5:53 AM 54.0 °F - 45.0 °F 72% 29.86 in 10.0 mi SSW 9.2 mph - N/A   Clear
6:53 AM 55.9 °F - 45.0 °F 67% 29.86 in 10.0 mi SSW 9.2 mph - N/A   Clear
7:53 AM 55.9 °F - 45.0 °F 67% 29.88 in 10.0 mi SSW 11.5 mph - N/A   Clear
8:53 AM 59.0 °F - 46.0 °F 62% 29.89 in 10.0 mi SSW 10.4 mph - N/A   Clear
9:53 AM 66.0 °F - 48.0 °F 52% 29.90 in 10.0 mi SSW 12.7 mph - N/A   Clear
10:53 AM 73.0 °F - 52.0 °F 48% 29.90 in 10.0 mi SW 15.0 mph - N/A   Clear
11:53 AM 78.1 °F - 55.0 °F 45% 29.88 in 10.0 mi SW 19.6 mph 28.8 mph N/A   Clear
12:53 PM 80.1 °F 80.1 °F 55.0 °F 42% 29.86 in 10.0 mi SSW 16.1 mph 23.0 mph N/A   Clear
1:53 PM 82.0 °F 81.3 °F 54.0 °F 38% 29.84 in 10.0 mi SSW 19.6 mph 27.6 mph N/A   Clear
2:53 PM 82.0 °F - 51.1 °F 34% 29.81 in 10.0 mi SSW 24.2 mph 31.1 mph N/A   Clear
3:53 PM 84.0 °F - 51.1 °F 32% 29.80 in 10.0 mi SSW 15.0 mph 25.3 mph N/A   Clear
4:53 PM 82.9 °F - 48.9 °F 31% 29.79 in 10.0 mi SSW 18.4 mph - N/A   Clear
5:53 PM 80.1 °F - 48.9 °F 34% 29.79 in 10.0 mi SSW 17.3 mph 25.3 mph N/A   Clear
6:53 PM 73.9 °F - 52.0 °F 46% 29.81 in 10.0 mi SSW 8.1 mph - N/A   Clear
7:53 PM 73.0 °F - 52.0 °F 48% 29.83 in 10.0 mi South 13.8 mph - N/A   Clear
8:53 PM 73.0 °F - 48.9 °F 42% 29.83 in 10.0 mi South 12.7 mph - N/A   Clear
9:53 PM 72.0 °F - 48.9 °F 44% 29.88 in 10.0 mi WNW 11.5 mph 19.6 mph N/A   Partly Cloudy
10:53 PM 66.0 °F - 37.9 °F 36% 29.92 in 10.0 mi NNW 12.7 mph - N/A   Clear
11:53 PM 62.1 °F - 41.0 °F 46% 29.94 in 10.0 mi North 11.5 mph - N/A   Clear